Location: Elmers End
(51.4000°N, 0.0500°W)
Time: 16:20:39
(UTC+00:00)

Daily predictions for brighter satellites

Satellite Brightness Start Highest point End
(mag) Time Altitude Azimuth Time Altitude Azimuth Time Altitude Azimuth
BREEZE M DEB (TANK) 1.9 17:37:32 10° W 17:39:34 51° S 17:42:53 10° ESE
Cosmos 1821 Rocket 4.1 17:35:35 10° N 17:41:35 56° ENE 17:47:36 10° SSE
Lacrosse 5 2.6 17:37:47 10° WNW 17:42:39 44° N 17:47:30 10° ENE
Unknown 4.5 17:39:05 10° SSW 17:42:45 33° SE 17:46:25 10° E
Cosmos 1953 2.9 17:40:45 10° SSE 17:44:29 36° E 17:48:15 10° NNE
Cosmos 2058 Rocket 4.3 17:41:30 10° SE 17:44:38 20° E 17:47:47 10° NE
Cosmos 1833 Rocket 3.9 17:40:07 10° NNW 17:44:39 24° NE 17:49:10 10° E
Cosmos 1703 4.5 17:45:19 10° NNE 17:48:30 22° ENE 17:51:38 10° ESE
Cosmos 1758 3.3 17:45:21 10° S 17:49:18 67° E 17:53:15 10° NNE
Cosmos 1184 Rocket 4.2 17:47:04 10° SSW 17:50:15 43° WNW 17:53:28 10° N
COBE Rocket 4.1 17:45:44 10° NNE 17:50:52 56° E 17:55:55 10° S
SL-24 R/B - RUBIN 2 4.2 17:46:10 10° SW 17:51:04 77° NW 17:56:41 10° NE
Nadezhda 3 Rocket 4.1 17:45:19 10° SSE 17:51:24 55° E 17:57:33 10° NNE
NOAA 12 4.3 17:47:12 10° SSE 17:52:29 79° WSW 17:57:49 10° NNW
H-2A R/B 3.9 17:49:23 10° S 17:53:10 51° W 17:57:01 10° NNW
Cosmos 1626 2.4 17:49:34 10° NNW 17:53:17 74° W 17:56:59 10° S
Cosmos 2228 3.6 17:50:24 10° SSE 17:54:24 36° E 17:58:24 10° NNE
COSMOS 2406 3.7 17:50:10 10° NNW 17:55:42 44° NE 18:01:12 10° ESE
Cosmos 1934 Rocket 4.2 17:52:05 10° N 17:58:12 50° ENE 18:04:22 10° SSE
Cosmos 371 Rocket 3.8 17:53:28 10° SW 17:58:14 63° WNW 18:03:03 10° NNE
Unknown 4.4 17:55:57 10° SSW 17:59:44 35° SE 18:03:09 12° E
Cosmos 2082 Rocket 3.5 17:55:24 10° NNW 17:59:57 23° NE 18:04:05 11° E
Unknown 4.5 17:56:38 10° SSW 18:00:23 34° SE 18:03:45 12° E
Envisat 3.1 17:55:39 10° SSE 18:00:44 86° WSW 18:05:53 10° NNW
Unknown 4.5 17:57:33 10° SSW 18:01:20 35° SE 18:04:41 12° E
COSMO-SKYMED 1 2.7 17:57:09 10° NNE 18:01:26 53° E 18:05:41 10° S
Cosmos 1726 3.2 18:01:20 10° SE 18:04:13 22° E 18:07:07 10° NE
Cosmos 304 Rocket 3.7 17:59:31 10° SSW 18:04:18 75° ESE 18:09:08 10° NNE
Unknown 4.4 18:00:45 10° SSW 18:04:32 35° SE 18:07:45 13° E
ATLAS CENTAUR R/B 3.8 18:01:50 10° WNW 18:05:19 19° NNW 18:08:42 10° NNE
FengYun 1-2 T 4.3 18:00:24 10° SSE 18:06:04 86° ENE 18:11:44 10° NNW
Cosmos 921 Rocket 3.9 18:02:41 10° SSE 18:06:32 28° E 18:10:23 10° NE
Cosmos 1939 Rocket 3.5 18:03:07 10° SE 18:06:44 35° ENE 18:10:25 10° N
Unknown 4.3 18:04:05 10° SW 18:07:55 38° SSE 18:11:03 14° E
Unknown 4.3 18:05:43 10° SW 18:09:34 39° SSE 18:12:38 15° E
Unknown 4.3 18:07:23 10° SW 18:11:16 40° SSE 18:14:16 15° E
Unknown 4.2 18:09:01 10° SW 18:12:55 40° SSE 18:15:53 16° E
Lacrosse 5 rocket 1.5 18:09:50 10° WNW 18:13:32 61° SW 18:17:24 10° SE
CSL-04 Debris 4.2 18:08:19 10° SSE 18:13:45 81° ENE 18:19:16 10° NNW
Cosmos 1825 Rocket 3.8 18:09:58 10° NNW 18:14:20 76° W 18:18:42 10° S
Cosmos 1953 Rocket 3.5 18:10:28 10° N 18:14:53 78° ENE 18:19:15 10° SSE
Unknown 4.2 18:12:16 10° SW 18:16:11 42° SSE 18:19:01 17° E
USA 116 3.5 18:14:30 10° NNE 18:17:28 41° E 18:20:31 10° S
Unknown 4.1 18:13:59 10° SW 18:17:55 43° SSE 18:20:41 18° E
Unknown 4.1 18:15:35 10° SW 18:19:31 44° SSE 18:22:15 18° E
Cosmos 2084 4.1 18:16:36 10° SSW 18:20:46 37° SE 18:24:06 15° ENE
Unknown 4.1 18:17:11 10° SW 18:21:07 44° SSE 18:23:46 19° E
Unknown 4.1 18:17:49 10° SW 18:21:46 45° SSE 18:24:25 19° E
Cosmos 1354 Rocket 4.3 18:17:55 10° NNW 18:23:10 72° WSW 18:28:22 10° SSE
CZ-4 R/B 1.9 18:19:31 10° S 18:23:38 68° WSW 18:27:52 10° NNW
FALCON 9 DEB 3.3 18:20:45 10° W 18:24:13 66° N 18:26:23 21° ENE
Unknown 4.1 18:20:22 10° SW 18:24:19 44° SSE 18:26:49 20° E
Unknown 3.3 18:21:18 10° W 18:24:48 67° N 18:27:00 21° ENE
Cosmos 1242 Rocket 2.5 18:22:36 10° N 18:26:17 63° ENE 18:29:56 10° SSE
Unknown 4.0 18:23:41 10° SW 18:27:39 46° SSE 18:30:03 21° E
Meteor 1-16 Rocket 4.2 18:22:28 10° S 18:27:55 57° E 18:33:15 10° NNE
Cosmos 1328 3.8 18:24:17 10° N 18:28:16 60° ENE 18:32:12 10° SSE
Unknown 4.0 18:25:18 10° SW 18:29:17 47° SSE 18:31:36 22° E
ADEOS Rocket 4.4 18:23:48 10° NE 18:29:49 24° E 18:35:36 10° SE
Unknown 3.4 18:26:00 10° WSW 18:29:54 79° SSE 18:32:18 22° ENE
Unknown 2.5 18:27:36 10° WNW 18:30:16 73° SSW 18:31:23 30° ESE
Cosmos 1844 Rocket 2.6 18:25:25 10° SSW 18:31:02 70° ESE 18:36:40 10° NNE
Unknown 3.9 18:27:08 10° SW 18:31:09 51° SSE 18:33:28 23° E
Cosmos 1606 Rocket 3.6 18:27:45 10° S 18:32:10 86° WNW 18:36:34 10° N
Unknown 3.9 18:28:34 10° SW 18:32:35 49° SSE 18:34:47 24° E
Cosmos 1470 4.1 18:30:24 10° SSW 18:34:13 43° WNW 18:38:03 10° N
Unknown 3.9 18:30:15 10° SW 18:34:16 50° SSE 18:36:25 25° E
Cosmos 1908 3.8 18:30:55 10° SSE 18:34:27 33° E 18:38:00 10° NNE
Unknown 3.3 18:30:43 10° WSW 18:34:33 89° SSE 18:36:44 25° ENE
Unknown 3.3 18:32:48 10° W 18:36:33 79° NNW 18:38:33 26° ENE
Unknown 3.8 18:33:30 10° SW 18:37:32 52° SSE 18:39:35 26° E
ASTEX 1 3.5 18:33:30 10° N 18:38:27 80° W 18:43:25 10° SSW
Unknown 3.8 18:35:13 10° SW 18:39:15 53° SSE 18:41:14 27° E
Unknown 3.3 18:36:35 10° W 18:39:58 64° N 18:41:24 31° ENE
Unknown 3.8 18:36:51 10° SW 18:40:54 54° SSE 18:42:48 28° E
Meteor 2-10 4.0 18:37:21 10° S 18:42:21 57° E 18:47:17 10° NNE
SPOT 3 Rocket 4.2 18:39:51 22° ESE 18:42:25 34° ENE 18:47:05 10° N
Unknown 3.8 18:38:32 10° SW 18:42:35 56° SSE 18:44:26 29° E
Ariane Rocket 2.9 18:38:12 10° SSE 18:43:17 74° ENE 18:48:24 10° NNW
Cosmos 2278 Rocket 3.1 18:40:10 10° SSE 18:44:47 26° ESE 18:46:34 22° ENE
Unknown 3.7 18:41:49 10° SW 18:45:53 58° SSE 18:47:37 31° E
YAOGAN 6 4.2 18:43:43 10° SSW 18:47:10 37° W 18:50:36 10° NNW
Cosmos 1844 3.6 18:41:41 10° SSW 18:47:22 74° ESE 18:53:09 10° NNE
Falcon 9 debris 3.3 18:44:05 10° W 18:47:31 65° N 18:48:41 37° ENE
Unknown 3.7 18:43:33 10° SW 18:47:37 60° SSE 18:49:19 32° E
Unknown 3.6 18:43:43 10° SW 18:47:49 64° SSE 18:49:33 32° E
Cosmos 2058 4.2 18:45:12 10° NNE 18:48:12 23° ENE 18:48:12 23° ENE
Unknown 3.3 18:45:14 10° W 18:48:44 65° N 18:49:56 37° ENE
Cosmos 1932 4.5 18:42:47 10° SW 18:49:06 90° SSE 18:55:36 10° NE
Unknown 3.6 18:45:19 10° SW 18:49:25 64° SSE 18:51:06 33° E
SKYMED 2 4.3 18:45:13 10° N 18:49:28 55° WNW 18:53:43 10° SSW
Unknown 3.6 18:48:21 10° SW 18:52:28 62° SSE 18:53:57 36° E
Cosmos 1992 Rocket 4.1 18:49:12 10° SSW 18:54:26 78° WNW 18:59:42 10° NNE
Unknown 3.6 18:51:41 10° WSW 18:55:47 65° SSE 18:57:09 39° E
USA 234 4.4 18:57:30 20° SE 18:57:30 20° SE 19:01:41 10° S
CZ-4C R/B 4.3 18:50:39 10° NW 18:57:10 37° WSW 19:04:27 10° S
Unknown 3.6 18:53:24 10° WSW 18:57:31 66° SSE 18:58:49 40° E
YAOGAN 1 4.0 18:54:37 10° SSW 18:58:42 40° W 19:02:49 10° NNW
Unknown 3.6 18:55:00 10° WSW 18:59:06 67° SSE 19:00:21 42° E
Cosmos 1777 Rocket 3.9 18:54:33 10° NNW 18:59:49 80° ENE 19:03:37 19° SSE
Unknown 3.6 18:56:42 10° WSW 19:00:49 68° SSE 19:02:01 43° E
Unknown 2.7 18:58:12 10° WNW 19:01:19 85° SSW 19:01:36 71° ESE
H-2A R/B 2.6 18:59:39 31° ESE 19:01:25 40° ENE 19:06:27 10° N
SJ-11-01 4.3 18:59:52 24° SE 19:02:37 60° ENE 19:07:15 10° N
ATLAS 5 CENTAUR R/B 1.9 18:58:46 10° SW 19:03:07 68° NW 19:07:08 15° NE
USA 186 3.8 19:06:43 14° N 19:06:43 14° N 19:07:15 10° N
SL-4 R/B 3.9 19:02:26 10° W 19:05:21 21° SW 19:07:19 14° S
Unknown 3.5 19:03:07 10° WSW 19:07:13 77° SSE 19:08:10 51° E
Unknown 3.5 19:03:18 10° WSW 19:07:26 73° SSE 19:08:22 51° E
Unknown 3.5 19:04:56 10° WSW 19:09:05 74° SSE 19:09:57 53° E
Cosmos 839 Rocket 4.4 19:03:36 10° NW 19:09:42 64° WSW 19:16:04 12° SSE
Unknown 3.5 19:06:38 10° WSW 19:10:46 75° SSE 19:11:35 55° E
CZ-2D R/B 4.3 19:07:07 10° S 19:10:49 46° W 19:14:35 10° NNW
CZ-2C R/B 3.9 19:10:54 34° E 19:11:56 36° ENE 19:17:10 10° N
Unknown 3.5 19:08:16 10° WSW 19:12:24 76° SSE 19:13:09 57° E
HJ-1C 3.7 19:10:36 24° S 19:12:30 65° WSW 19:15:53 10° NNW
FREGAT/IRIS 3.8 19:14:42 33° N 19:14:42 33° N 19:16:25 10° NNW
Gbstr 26 Del rocket 4.1 19:07:48 10° W 19:14:00 84° SSW 19:17:24 35° ESE
Unknown 3.5 19:09:54 10° WSW 19:14:03 77° SSE 19:14:43 60° E
Cosmos 1076 Rocket 3.6 19:10:14 10° N 19:14:33 53° ENE 19:14:49 52° E
Cosmos 2084 Rocket 4.3 19:10:44 10° NW 19:14:53 37° NNE 19:15:23 35° NE
Cosmos 1461 2.9 19:11:39 10° NW 19:15:39 57° NE 19:15:58 55° ENE
Cosmos 2263 Rocket 4.4 19:12:24 10° W 19:16:51 23° NW 19:21:18 10° NNE
Unknown 3.5 19:13:17 10° WSW 19:17:26 80° SSE 19:17:59 65° E
Cosmos 1339 Rocket 4.3 19:12:30 10° S 19:18:35 86° E 19:24:45 10° N
Starlink (trailer) 3.5 19:14:55 10° WSW 19:19:04 81° SSE 19:19:33 67° E
Unknown 3.4 19:16:36 10° WSW 19:20:45 82° SSE 19:21:10 70° E
Unknown 3.4 19:17:38 10° WSW 19:21:42 87° N 19:22:06 71° ENE
Cosmos 2058 Rocket 3.9 19:18:01 10° SSW 19:22:16 51° WNW 19:26:33 10° N
Unknown 3.4 19:18:13 10° WSW 19:22:23 83° SSE 19:22:44 73° E
SJ-6B 2.8 19:25:01 62° NNE 19:25:01 62° NNE 19:28:24 10° N
Lacrosse 5 1.9 19:21:07 10° WNW 19:26:12 70° NNE 19:27:11 55° E
Cosmos 1605 Rocket 4.4 19:20:54 10° NNW 19:27:03 63° W 19:33:07 10° S
BREEZE-M DEB (TANK) 3.8 19:20:44 10° SW 19:27:40 32° SSE 19:27:40 32° SSE
Unknown 3.4 19:24:51 10° WSW 19:29:01 87° SSE 19:29:07 85° ESE
Unknown 3.4 19:24:56 10° WSW 19:29:05 88° SSE 19:29:11 85° E
Cosmos 1833 Rocket 2.6 19:23:42 10° NNW 19:29:22 90° ENE 19:31:27 41° SSE
Unknown 3.4 19:25:43 10° WSW 19:29:53 88° SSE 19:29:57 86° ESE
Cosmos 1459 Rocket 3.9 19:24:08 10° N 19:30:16 61° ENE 19:32:12 42° SE
Unknown 3.5 19:29:51 10° WSW 19:33:55 86° WSW 19:33:55 86° WSW
Unknown 3.5 19:29:52 10° WSW 19:33:55 86° WSW 19:33:55 86° WSW
Resurs 01 Rocket 2.8 19:35:39 30° NNE 19:35:39 30° NNE 19:38:23 10° N
ARGOS 3.1 19:34:27 53° SE 19:35:35 68° ENE 19:41:00 10° N
Cosmos 1727 Rocket 3.8 19:29:28 10° S 19:35:40 82° E 19:41:52 10° NNE
Unknown 3.6 19:31:38 10° WSW 19:35:38 83° W 19:35:38 83° W
Cosmos 1802 Rocket 4.1 19:31:11 10° N 19:37:33 59° ENE 19:38:55 49° ESE
Unknown 3.6 19:34:56 10° WSW 19:38:49 77° W 19:38:49 77° W
Cosmos 1726 3.9 19:35:59 10° SW 19:39:18 32° WNW 19:42:38 10° N
Unknown 3.7 19:35:34 10° WSW 19:39:24 76° W 19:39:24 76° W
COSMOS 2406 4.3 19:34:38 10° NW 19:40:02 42° WSW 19:45:01 12° S
Cosmos 1898 Rocket 4.0 19:35:31 10° NNW 19:40:09 43° NE 19:40:09 43° NE
Unknown 3.7 19:36:32 10° WSW 19:40:20 74° W 19:40:20 74° W
SL-08 RB Rocket 4.3 19:42:58 45° NNE 19:42:58 45° NNE 19:46:27 10° N
Unknown 3.8 19:39:44 10° WSW 19:43:24 68° W 19:43:24 68° W
Cosmos 921 Rocket 4.4 19:40:26 10° SW 19:44:42 40° WNW 19:48:57 10° N
Cosmos 2082 Rocket 2.1 19:39:08 10° NNW 19:44:55 85° ENE 19:45:56 62° SE
ATLAS CENTAUR R/B 3.7 19:42:52 10° NNW 19:45:56 17° N 19:46:39 16° NNE
Cosmos 292 Rocket 4.1 19:42:07 10° SW 19:46:50 64° WNW 19:51:35 10° NNE
Unknown 4.0 19:43:10 10° WSW 19:46:42 63° W 19:46:42 63° W
Unknown 4.0 19:44:49 10° WSW 19:48:18 60° W 19:48:18 60° W
Cosmos 2173 Rocket 3.9 19:43:29 10° N 19:49:50 82° E 19:51:41 49° SSE
Unknown 4.1 19:46:32 10° WSW 19:49:56 58° W 19:49:56 58° W
Lacrosse 5 rocket 3.9 19:50:26 10° WSW 19:52:03 12° SW 19:53:24 11° SSW
Unknown 4.2 19:48:11 10° W 19:51:32 56° W 19:51:32 56° W
Unknown 4.3 19:51:29 10° W 19:54:41 52° W 19:54:41 52° W
SJ 16-02 3.0 19:52:31 10° N 19:54:38 24° N 19:54:38 24° N
Unknown 4.4 19:53:14 10° W 19:56:22 49° W 19:56:22 49° W
Unknown 4.5 19:54:50 10° W 19:57:55 48° W 19:57:55 48° W
Cosmos 2084 4.3 19:55:53 10° WSW 20:00:15 47° NW 20:00:40 46° NNW
Cosmos 1725 Rocket 4.0 19:59:04 10° N 20:04:49 60° NE 20:04:49 60° NE
Cosmos 2100 Rocket 4.0 19:59:32 10° NNW 20:05:46 75° W 20:07:48 44° S
Cosmos 1000 Rocket 4.3 20:12:39 83° SE 20:12:46 84° E 20:19:04 10° N
In-Cosmos 22 Rocket 4.2 20:09:58 10° NNW 20:15:07 73° WNW 20:15:07 73° WNW
Cosmos 1844 Rocket 4.5 20:10:32 10° WSW 20:15:26 29° NW 20:20:21 10° NNE
ADEOS Rocket 3.4 20:08:25 10° NNE 20:16:18 89° ESE 20:23:46 10° SSW
Cosmos 2278 Rocket 2.5 20:22:48 10° SW 20:28:26 65° WNW 20:28:36 65° NW
Cosmos 2016 Rocket 4.0 20:26:31 10° NNW 20:32:44 74° W 20:32:47 74° W
Cosmos 2061 Rocket 4.1 20:28:46 10° NNW 20:35:01 68° W 20:35:14 67° WSW
H-2A R/B 3.3 20:40:17 36° WSW 20:40:53 37° W 20:45:52 10° NNW
Terra 4.4 20:46:39 13° N 20:46:39 13° N 20:47:10 10° N
ATLAS 5 CENTAUR R/B 3.7 20:44:44 10° WNW 20:48:41 26° NNW 20:48:41 26° NNW
CZ-2C R/B 4.1 20:51:59 48° W 20:51:59 48° W 20:57:18 10° NNW
Lacrosse 5 4.0 21:04:18 10° WNW 21:06:22 22° W 21:06:22 22° W
Resurs 01 Rocket 4.2 21:13:14 18° NW 21:13:14 18° NW 21:14:46 10° NNW
ATLAS CENTAUR R/B 4.5 21:22:04 10° NNW 21:22:50 14° NNW 21:22:50 14° NNW
Cosmos 2082 Rocket 4.3 21:24:21 10° NW 21:27:49 19° W 21:27:49 19° W
SJ 16-02 4.4 21:31:15 10° NW 21:31:38 12° NW 21:31:38 12° NW
